Regional Weather Roundup
Issued by NWS

Home | Current Version | Previous Version | Text Only | Print | Product List | Glossary On
Versions: 1 2 3 4 5 6 7 8 9 10 11 12 13 14 15 16 17 18 19 20 21 22 23 24 25 26 27
000
ASCA42 TJSJ 241710
RWRPR
PUERTO RICO/U.S. VIRGIN ISLANDS HOURLY WEATHER ROUNDUP
NATIONAL WEATHER SERVICE SAN JUAN PR
100 PM AST FRI NOV 24 2017

PRZ001>002-007>008-010-241800-
PUERTO RICO

CITY           SKY/WX    TMP DP  RH WIND       PRES   REMARKS
SAN JUAN LMM   MOSUNNY   88  81  79 NE18      29.91F HX 105
AGUADILLA      MOSUNNY   86  77  74 E17       29.93F HX  97
$$

VIZ001>002-241800-
U.S. VIRGIN ISLANDS

CITY           SKY/WX    TMP DP  RH WIND       PRES   REMARKS
CHARLOTTE AMA    N/A    N/A N/A N/A MISG      29.92F
$$

HOURLY WEATHER ROUNDUP FOR THE NEWS MEDIA

CITY           SKY/WX    TMP DP  RH WIND       PRES   REMARKS
ORLANDO        CLOUDY    63  61  93 NW8       29.91F
NEW YORK       SUNNY     46  25  43 SW7       30.05F
NEWARK         SUNNY     48  22  35 VRB3      30.03F
CHICAGO        MOSUNNY   53  33  46 S18G26    29.64F
HARTFORD       SUNNY     47  26  44 W7        30.00F
BOSTON         MOSUNNY   46  28  49 SW6       29.99F
DALLAS         MOSUNNY   64  36  35 SE9       29.93F
PHILADELPHIA   SUNNY     48  23  37 W7        30.05F
LOS ANGELES    MOSUNNY   74  45  35 E7        29.93S
WASHINGTON DC  SUNNY     50  28  42 S9        30.04F



USA.gov is the U.S. government's official web portal to all federal, state and local government web resources and services.